"TOA5","AWS1","CR1000","7964","CR1000.Std.14","CPU:AWS1_114.CR1","64363","TBL110"
"TIMESTAMP","RECORD","Wind_spd_WVc(1)","Wind_spd_WVc(2)","Air_Temp_Avg","Humidity_Avg","SW_upper_Wm2_Avg","Rain_Tot","Press_Avg","Issui_Tot","Depth_cm","SR50A_Raw","Quality","Ground_Temp_Avg(1)","Ground_Temp_Avg(2)","SW_lower_Wm2_Avg","Albedo_Avg","SWC_per(1)","SWC_per(2)","Period(1)","Period(2)"
"TS","RN","","","","","","","","","","","","","","","","","","",""
"","","WVc","WVc","Avg","Avg","Avg","Tot","Avg","Tot","Smp","Smp","Smp","Avg","Avg","Avg","Avg","Smp","Smp","Smp","Smp"
"2016-01-22 00:00:00",219085,0.02,24.78,-8.82,79.86,0,0,862.3653,0,49.21,2.738,190,1.699,2.405,0.1137639,0,51.27,59.26,33.61,35.51
"2016-01-22 00:10:00",219086,0.266,216.3,-10,84.8,0,0,862.2894,0,49.73,2.732,188,1.705,2.408,0,0,51.33,59.26,33.62,35.51
"2016-01-22 00:20:00",219087,0.092,190.7,-9.89,84.4,0,0,862.2536,0,49.58,2.736,176,1.698,2.4,0,0,51.27,59.26,33.61,35.51
"2016-01-22 00:30:00",219088,0.002,49.14,-9.82,85.8,0,0,862.2578,0,49.48,2.731,185,1.682,2.375,0.1403088,0,51.27,59.26,33.61,35.51
"2016-01-22 00:40:00",219089,0.016,12.54,-8.91,80.9,0,0,862.1714,0,49.61,2.727,176,1.694,2.392,0.8759949,0,51.33,59.26,33.62,35.51
"2016-01-22 00:50:00",219090,0.134,318.4,-8.67,80.5,0,0,862.1651,0,49.29,2.732,176,1.697,2.392,0.8873886,0,51.27,59.26,33.61,35.51
"2016-01-22 01:00:00",219091,0.036,352.6,-9.39,83.7,0,0,862.1298,0,49.65,2.731,193,1.69,2.357,0.04171466,0,51.27,59.26,33.61,35.51
"2016-01-22 01:10:00",219092,0,0,-9.33,85.7,0,0,862.2606,0,49.26,2.737,194,1.68,2.356,0.02654548,0,51.27,59.26,33.61,35.51
"2016-01-22 01:20:00",219093,0.113,182.3,-10.07,86.1,0,0,862.3018,0,49.23,2.739,194,1.694,2.373,0,0,51.27,59.26,33.61,35.51
"2016-01-22 01:30:00",219094,0,0,-9.84,88,0,0,862.132,0,49.41,2.734,193,1.704,2.361,0.1023986,0,51.33,59.26,33.62,35.51
"2016-01-22 01:40:00",219095,0.033,167.6,-10.02,86.4,0,0,862.0699,0,49.03,2.743,194,1.683,2.357,0.0493038,0,51.27,59.26,33.61,35.51
"2016-01-22 01:50:00",219096,0.196,40.22,-10.62,87.8,0.07080314,0,861.9866,0,49.94,2.731,194,1.673,2.363,0.02275611,0,51.33,59.26,33.62,35.51
"2016-01-22 02:00:00",219097,0.901,41.14,-8.87,81.4,0,0,862.0475,0,49.24,2.731,193,1.69,2.366,1.471578,0,51.33,59.26,33.62,35.51
"2016-01-22 02:10:00",219098,0.374,18.21,-8.8,79.82,0,0,862.0692,0,48.92,2.736,181,1.692,2.373,0.6485704,0,51.27,59.26,33.61,35.51
"2016-01-22 02:20:00",219099,0.084,3.584,-9.34,84.7,0,0,862.1183,0,49.17,2.737,194,1.673,2.373,0,0,51.33,59.26,33.62,35.51
"2016-01-22 02:30:00",219100,0,0,-9.74,86.6,0,0,862.3375,0,48.98,2.742,194,1.695,2.379,0,0,51.33,59.26,33.62,35.51
"2016-01-22 02:40:00",219101,0,0,-10.22,86.9,0,0,862.2171,0,49.08,2.741,193,1.687,2.396,0,0,51.27,59.26,33.61,35.51
"2016-01-22 02:50:00",219102,0,0,-10.52,87.4,0,0,862.0861,0,48.85,2.746,192,1.689,2.418,0,0,51.27,59.26,33.61,35.51
"2016-01-22 03:00:00",219103,0,0,-10.78,88.6,0,0,862.085,0,48.97,2.745,192,1.702,2.431,0,0,51.27,59.26,33.61,35.51
"2016-01-22 03:10:00",219104,0.019,27.89,-10.21,91.1,0,0,862.0182,0,48.64,2.745,194,1.707,2.437,0.5462318,0,51.33,59.26,33.62,35.51
"2016-01-22 03:20:00",219105,0.07,210.6,-10.35,89.1,0,0,861.8743,0,48.88,2.742,193,1.712,2.443,0.2541517,0,51.27,59.26,33.61,35.51
"2016-01-22 03:30:00",219106,0,0,-9.85,90,0,0,862.0784,0,48.71,2.742,193,1.716,2.447,0.7472921,0,51.33,59.26,33.62,35.51
"2016-01-22 03:40:00",219107,0,0,-9.97,88.4,0,0,862.1157,0,48.81,2.745,194,1.724,2.449,0.447621,0,51.27,59.26,33.61,35.51
"2016-01-22 03:50:00",219108,0,0,-10.18,89.6,0,0,862.116,0,48.79,2.742,189,1.727,2.452,0.2579526,0,51.33,59.26,33.62,35.51
"2016-01-22 04:00:00",219109,0,0,-10.13,88.7,0,0,862.1161,0,48.61,2.747,188,1.732,2.453,0.3641687,0,51.33,59.26,33.62,35.51
"2016-01-22 04:10:00",219110,0,0,-10.5,88.5,0,0,862.1161,0,48.66,2.747,193
"2016-01-22 04:10:00",219110,0,0,-10.5,88.5,0,0,862.1161,0,48.66,2.747,193,1.745,2.453,0.01517371,0,51.33,59.26,33.62,35.51
"2016-01-22 04:20:00",219111,0.009,208.7,-10.6,88.6,0,0,862.1351,0,48.64,2.749,189,1.747,2.453,0.03793427,0,51.27,59.26,33.61,35.51
"2016-01-22 04:30:00",219112,0.072,205,-10.88,89.3,0,0,862.1161,0,48.77,2.747,193,1.759,2.453,0,0,51.33,59.26,33.62,35.51
"2016-01-22 04:40:00",219113,0,0,-10.6,90,0,0,862.1161,0,48.45,2.75,194,1.761,2.453,0.06069483,0,51.27,59.26,33.61,35.51
"2016-01-22 04:50:00",219114,0.017,311.2,-10.5,90.8,0,0,862.1161,0,48.62,2.746,193,1.761,2.453,0.3527887,0,51.27,59.26,33.61,35.51
"2016-01-22 05:00:00",219115,0,0,-10.84,88.9,0,0,862.1203,0,48.46,2.751,192,1.761,2.453,0.1517371,0,51.33,59.26,33.62,35.51
"2016-01-22 05:10:00",219116,0,0,-11.17,89.9,0,0,862.1161,0,48.39,2.752,188,1.761,2.453,0.03034742,0,51.27,59.26,33.61,35.51
"2016-01-22 05:20:00",219117,0,0,-11.27,89,0,0,862.1962,0,48.65,2.752,170,1.761,2.453,0.01138028,0,51.33,59.26,33.62,35.51
"2016-01-22 05:30:00",219118,0,0,-11.13,90.4,0,0,862.4598,0,47.95,2.758,171,1.761,2.453,0.02276056,0,51.33,59.26,33.62,35.51
"2016-01-22 05:40:00",219119,0,0,-11.76,88.1,0,0,862.6137,0,48.5,2.754,181,1.761,2.453,0.007586854,0,51.27,59.26,33.61,35.51
"2016-01-22 05:50:00",219120,0.038,110.1,-11.63,89.1,0,0,862.5062,0,48.15,2.758,185,1.761,2.457,0.1138028,0,51.33,59.26,33.62,35.51
"2016-01-22 06:00:00",219121,0.269,266.1,-11.29,91.4,0,0,862.4408,0,47.96,2.755,187,1.761,2.463,0.6335023,0,51.27,59.26,33.61,3
"2016-01-22 06:00:00",219121,0.269,266.1,-11.29,91.4,0,0,862.4408,0,47.96,2.755,187,1.761,2.463,0.6335023,0,51.27,59.26,33.61,35.51
"2016-01-22 06:10:00",219122,0.199,61.72,-10.53,91.9,0,0,862.561,0,48.06,2.758,193,1.761,2.454,1.304939,0,51.27,59.26,33.61,35.51
"2016-01-22 06:20:00",219123,0.1,149.9,-11.89,89.1,0,0,862.3691,0,48.55,2.753,184,1.761,2.458,0,0,51.27,59.26,33.61,35.51
"2016-01-22 06:30:00",219124,0.04,61.72,-11.17,90.7,0,0,862.5758,0,48.25,2.757,187,1.761,2.472,0.1744976,0,51.33,59.26,33.62,35.51
"2016-01-22 06:40:00",219125,0,0,-11.46,90.2,0,0,862.8751,0,47.72,2.762,193,1.761,2.507,0.1782911,0,51.27,59.26,33.61,35.51
"2016-01-22 06:50:00",219126,0.512,207.8,-12.16,87.6,0,0,862.8666,0,48.42,2.758,178,1.761,2.5,0.2389859,0,51.27,59.26,33.61,35.51
"2016-01-22 07:00:00",219127,0.221,95.9,-11.88,90.7,0,0,863.0121,0,48.4,2.753,170,1.761,2.492,1.9043,0,51.27,59.26,33.61,35.51
"2016-01-22 07:10:00",219128,0.192,121.7,-11.14,92.4,0.03147451,0,863.2399,0,48.04,2.761,175,1.761,2.463,5.496675,2.694,51.33,59.26,33.62,35.51
"2016-01-22 07:20:00",219129,0.514,1.62,-11.33,91.6,0.4091686,0,863.0291,0,47.9,2.757,184,1.761,2.458,10.98576,9.06,51.27,59.26,33.61,35.51
"2016-01-22 07:30:00",219130,0.389,314.5,-10.51,91.8,0.5232637,0,863.2188,0,47.93,2.753,185,1.761,2.453,15.76548,45.91,51.27,59.26,33.61,35.51
"2016-01-22 07:40:00",219131,0.141,23.57,-10.53,90.5,4.256927,0,863.2947,0,47.94,2.752,188,1.761,2.453,32.33897,7.746,51.27,59.26,33.61,35.51
"2016-01-22 07:50:00",219132,0.22,13.56,-10.2,90.9,4.32381,0,863.6341,0,48,2.751,174,1.755,2.453,34.23568,8.14,51.33,59.26,33.62,35.51
"2016-01-22 08:00:00",219133,0.263,293.5,-9.72,91.2,4.768388,0,863.5351,0,48.18,2.746,170,1.734,2.453,30.6433,7.417,51.27,59.26,33.61,35.51
"2016-01-22 08:10:00",219134,0.363,315,-9.09,87.3,10.54396,0,863.6363,0,47.91,2.747,170,1.718,2.424,55.14505,5.5,51.27,59.26,33.61,35.51
"2016-01-22 08:20:00",219135,0.319,300.3,-8.87,87.7,17.42507,0,863.9061,0,47.83,2.746,170,1.696,2.41,92.41927,5.321,51.33,59.26,33.62,35.51
"2016-01-22 08:30:00",219136,0.361,151.4,-8.49,87.6,14.8363,0,864.0875,0,47.65,2.746,171,1.736,2.408,81.82422,5.516,51.27,59.26,33.61,35.51
"2016-01-22 08:40:00",219137,0.213,314.3,-8.34,86.7,12.91242,0,864.1212,0,47.65,2.746,174,1.831,2.481,65.28488,5.053,51.27,59.26,33.61,35.51
"2016-01-22 08:50:00",219138,0.275,7.422,-8.42,86.7,14.02582,0,864.1423,0,47.61,2.746,174,1.829,2.536,64.92447,4.629,51.33,59.26,33.62,35.51
"2016-01-22 09:00:00",219139,0.051,308.2,-8.26,85.8,15.72828,0,864.2907,0,47.59,2.745,170,1.769,2.497,68.97863,4.386,51.33,59.26,33.62,35.51
"2016-01-22 09:10:00",219140,0.427,296.2,-7.834,82.9,16.99286,0,864.2758,0,47.63,2.745,178,1.71,2.419,75.66761,4.454,51.33,59.26,33.62,35.51
"2016-01-22 09:20:00",219141,0.267,311.4,-7.942,83.4,19.72491,0,864.2962,0,47.8,2.742,171,1.684,2.381,88.95301,4.51,51.33,59.26,33.62,35.51
"2016-01-22 09:30:00",219142,0.362,264.3,-7.308,80.8,20.5226,0,864.4426,0,47.77,2.739,186,1.716,2.416,96.46596,4.701,51.33,59.26,33.62,35.51
"2016-01-22 09:40:00",219143,0.207,4.125,-7.27,79.12,18.56766,0,864.6969,0,47.72,2.74,187,1.723,2.414,92.38445,4.998,51.33,59.26,33.62,35.51
"2016-01-22 09:50:00",219144,0.211,337.4,-7.138,76.87,20.76219,0,864.7852,0,47.58,2.74,187,1.756,2.423,93.59377,4.55,51.33,59.26,33.62,35.51
"2016-01-22 10:00:00",219145,0.672,311.5,-7.241,78.42,18.77995,0,864.8083,0,47.63,2.74,178,1.778,2.436,84.174,4.486,51.33,59.26,33.62,35.51
"2016-01-22 10:10:00",219146,0.288,312.7,-7.347,84.2,19.72779,0,865.0043,0,47.52,2.742,192,1.777,2.429,87.15462,4.418,51.33,59.26,33.62,35.51
"2016-01-22 10:20:00",219147,0.358,342.6,-7.047,84.4,22.25644,0,864.8526,0,47.71,2.737,187,1.774,2.478,104.4228,4.688,51.33,59.26,33.62,35.51
"2016-01-22 10:30:00",219148,0.331,343.1,-6.69,83.5,25.15868,0,865.0233,0,47.43,2.738,190,1.754,2.462,128.9487,5.12,51.33,59.26,33.62,35.51
"2016-01-22 10:40:00",219149,0.441,12.36,-6.411,85.4,33.70473,0,865.0613,0,47.14,2.739,187,1.757,2.446,192.2146,5.699,51.38,59.26,33.64,35.51
"2016-01-22 10:50:00",219150,0.39,357.7,-6.142,85.3,26.1687,0,865.2225,0,47.06,2.741,180,1.793,2.439,153.6951,5.899,51.38,59.26,33.64,35.51
"2016-01-22 11:00:00",219151,0.264,355.2,-6.401,85.9,23.14719,0,865.3791,0,47.09,2.741,187,1.802,2.426,135.0663,5.819,51.33,59.26,33.62,35.51
"2016-01-22 11:10:00",219152,0.361,318.2,-6.319,87.4,27.32131,0,865.5181,0,47.12,2.741,192,1.777,2.405,152.1279,5.565,51.27,59.26,33.61,35.51
"2016-01-22 11:20:00",219153,0.411,328.7,-6.366,86.5,29.89448,0,865.3086,0,47.2,2.741,192,1.734,2.382,162.3704,5.426,51.33,59.26,33.62,35.51
"2016-01-22 11:30:00",219154,0.427,321.7,-6.453,86.8,34.14711,0,865.2391,0,47.1,2.742,191,1.72,2.368,186.3323,5.454,51.27,59.26,33.61,35.51
"2016-01-22 11:40:00",219155,0.605,57.04,-6.842,85.4,35.50287,0,864.9435,0,47,2.743,192,1.717,2.362,170.6421,4.771,51.27,59.26,33.61,35.51
"2016-01-22 11:50:00",219156,0.405,342,-6.045,81.2,43.24409,0,864.9239,0,46.85,2.741,184,1.713,2.403,287.8883,6.641,51.33,59.26,33.62,35.51
"2016-01-22 12:00:00",219157,0.646,332.7,-5.988,81.3,34.9522,0,864.7299,0,46.91,2.74,187,1.693,2.406,182.7526,5.309,51.33,59.26,33.62,35.51
"2016-01-22 12:10:00",219158,0.219,340.2,-5.8,82.6,23.34208,0,864.5761,0,46.95,2.74,187,1.681,2.405,129.8324,5.557,51.33,59.26,33.62,35.51
"2016-01-22 12:20:00",219159,0.394,329.8,-5.886,83.7,39.86279,0,864.5402,0,46.79,2.741,192,1.678,2.405,213.0755,5.333,51.33,59.26,33.62,35.51
"2016-01-22 12:30:00",219160,0.577,353.1,-5.769,80.6,34.12261,0,864.486,0,46.7,2.743,192,1.682,2.395,171.1943,5.105,51.33,59.26,33.62,35.51
"2016-01-22 12:40:00",219161,0.526,306.7,-5.603,77.53,59.71632,0,864.4107,0,46.94,2.74,193,1.691,2.374,246.6079,4.415,51.27,59.26,33.61,35.51
"2016-01-22 12:50:00",219162,0.428,288.4,-5.499,78.45,54.88371,0,864.4492,0,46.38,2.742,192,1.677,2.353,246.06,4.71,51.33,59.26,33.62,35.51
"2016-01-22 13:00:00",219163,0.718,323.3,-5.587,79.91,35.11363,0,864.3477,0,46.66,2.742,191,1.667,2.333,182.6864,5.19,51.33,59.26,33.62,35.51
"2016-01-22 13:10:00",219164,0.695,23.91,-5.372,81.8,42.02468,0,864.1266,0,46.73,2.74,191,1.64,2.343,214.4303,5.205,51.33,59.26,33.62,35.51
"2016-01-22 13:20:00",219165,0.321,27.47,-5.272,82.1,41.04066,0,864.3193,0,46.46,2.741,187,1.63,2.299,215.1129,5.288,51.33,59.26,33.62,35.51
"2016-01-22 13:30:00",219166,0.609,359.4,-5.079,82.2,44.72686,0,864.5634,0,46.22,2.743,176,1.627,2.317,232.6867,5.274,51.33,59.26,33.62,35.51
"2016-01-22 13:40:00",219167,0.836,355.9,-5.417,81,32.45634,0,864.3779,0,46.04,2.747,195,1.627,2.32,162.9771,5.017,51.27,59.26,33.61,35.51
"2016-01-22 13:50:00",219168,0.816,319.4,-5.717,80.9,30.32609,0,864.3695,0,46.03,2.75,179,1.626,2.342,150.0508,4.938,51.33,59.26,33.62,35.51
"2016-01-22 14:00:00",219169,0.622,290.7,-5.764,82.2,32.61352,0,864.3421,0,45.83,2.75,190,1.638,2.334,159.968,4.921,51.33,59.26,33.62,35.51
"2016-01-22 14:10:00",219170,0.611,330.9,-5.543,82,34.80662,0,864.5886,0,45.95,2.749,172,1.621,2.296,173.7544,4.989,51.33,59.26,33.62,35.51
"2016-01-22 14:20:00",219171,0.579,292.6,-5.708,82.5,36.15078,0,864.3695,0,45.83,2.75,194,1.639,2.327,154.8521,4.448,51.33,59.26,33.62,35.51
"2016-01-22 14:30:00",219172,0.699,264.5,-5.682,81.8,29.92521,0,864.3337,0,46.03,2.748,194,1.66,2.315,152.7679,5.115,51.27,59.26,33.61,35.51
"2016-01-22 14:40:00",219173,0.853,238.4,-5.745,81.5,24.67827,0,864.6854,0,45.56,2.754,189,1.639,2.314,120.3976,4.859,51.33,59.26,33.62,35.51
"2016-01-22 14:50:00",219174,0.463,267.2,-6.028,82.5,15.76831,0,864.9719,0,45.54,2.756,185,1.602,2.317,69.5874,4.415,51.33,59.26,33.62,35.51
"2016-01-22 15:00:00",219175,0.908,286.7,-6.291,81.5,16.18885,0,865.2057,0,45.48,2.758,186,1.625,2.317,76.13573,4.693,51.33,59.26,33.62,35.51
"2016-01-22 15:10:00",219176,0.782,270.6,-6.39,80.5,14.60888,0,865.3005,0,45.33,2.759,176,1.625,2.319,71.74744,4.904,51.33,59.26,33.62,35.51
"2016-01-22 15:20:00",219177,0.564,268.1,-6.388,80.5,9.931884,0,865.3636,0,45.24,2.761,177,1.627,2.347,49.95403,4.995,51.33,59.26,33.62,35.51
"2016-01-22 15:30:00",219178,1.173,248.9,-6.549,80.3,13.32436,0,865.5306,0,45.68,2.756,190,1.643,2.376,66.44933,4.985,51.33,59.26,33.62,35.51
"2016-01-22 15:40:00",219179,0.636,241.5,-6.636,82.3,10.99471,0,865.5703,0,45.72,2.757,189,1.701,2.341,55.07062,5.009,51.27,59.26,33.61,35.51
"2016-01-22 15:50:00",219180,1.047,281.6,-6.852,82.9,10.65384,0,865.5582,0,46.2,2.753,187,1.727,2.37,47.68858,4.459,51.33,59.26,33.62,35.51
"2016-01-22 16:00:00",219181,0.935,239.1,-6.915,83.1,10.63868,0,865.4639,0,45.8,2.757,188,1.746,2.396,52.43338,4.918,51.33,59.26,33.62,35.51
"2016-01-22 16:10:00",219182,0.648,284.5,-7.012,83.1,6.872422,0,865.6076,0,45.69,2.759,176,1.75,2.403,31.077,4.523,51.33,59.26,33.62,35.51
"2016-01-22 16:20:00",219183,0.782,244.5,-7.151,85.4,5.531784,0,865.5762,0,45.48,2.762,191,1.734,2.402,25.95579,4.69,51.33,59.26,33.62,35.51
"2016-01-22 16:30:00",219184,1.261,267.5,-7.365,85.3,6.235556,0,865.4797,0,44.92,2.769,181,1.713,2.392,29.16288,4.517,51.33,59.26,33.62,35.51
"2016-01-22 16:40:00",219185,1.301,264.7,-7.648,84.2,3.896242,0,865.5031,0,45.08,2.769,185,1.683,2.358,12.83577,3.279,51.33,59.26,33.62,35.51
"2016-01-22 16:50:00",219186,1.415,295.3,-7.892,80.7,2.704959,0,865.7664,0,45.76,2.763,189,1.648,2.363,8.059318,2.99,51.33,59.26,33.62,35.51
"2016-01-22 17:00:00",219187,0.936,282,-8.11,78.65,1.580514,0,865.9772,0,45.87,2.763,186,1.634,2.377,4.241946,2.672,51.33,59.26,33.62,35.51
"2016-01-22 17:10:00",219188,0.695,281.5,-8.29,78.25,0.6644449,0,866.1647,0,46.08,2.762,195,1.672,2.386,1.08797,1.559,51.33,59.26,33.62,35.51
"2016-01-22 17:20:00",219189,1.007,300.7,-8.38,81,0.03931627,0,866.514,0,45.79,2.765,186,1.647,2.327,0.1061436,0.225,51.33,59.26,33.62,35.51
"2016-01-22 17:30:00",219190,1.147,318,-8.42,82.2,0,0,866.7338,0,45.87,2.765,194,1.66,2.354,0.007582277,0,51.27,59.26,33.61,35.51
"2016-01-22 17:40:00",219191,1.093,310.1,-8.55,81.5,0,0,866.8223,0,45.76,2.766,189,1.689,2.389,0,0,51.33,59.26,33.62,35.51
"2016-01-22 17:50:00",219192,1.387,294,-8.63,82.2,0,0,866.6691,0,45.76,2.767,190,1.708,2.435,0,0,51.33,59.26,33.62,35.51
"2016-01-22 18:00:00",219193,0.736,255.4,-8.88,83.7,0.01179883,0,866.5654,0,45.69,2.77,189,1.745,2.447,0,0,51.33,59.26,33.62,35.51
"2016-01-22 18:10:00",219194,0.654,212,-9.04,86.2,0,0,866.4858,0,45.5,2.771,189,1.747,2.44,0,0,51.33,59.26,33.62,35.51
"2016-01-22 18:20:00",219195,0.421,221.2,-9.05,87.5,0,0,866.5743,0,45.61,2.771,183,1.719,2.38,0,0,51.33,59.26,33.62,35.51
"2016-01-22 18:30:00",219196,0.229,310.3,-9.31,88,0.1179891,0,866.5702,0,45.45,2.774,188,1.707,2.388,0,0,51.33,59.26,33.62,35.51
"2016-01-22 18:40:00",219197,0.395,295.8,-9.54,88,0.1573188,0,866.5681,0,45.45,2.774,181,1.687,2.4,0,0,51.33,59.26,33.62,35.51
"2016-01-22 18:50:00",219198,0.186,41.05,-9.72,87.2,0.04719562,0,866.5828,0,45.45,2.776,176,1.683,2.388,0,0,51.33,59.26,33.62,35.51
"2016-01-22 19:00:00",219199,0.151,249.9,-9.83,87.6,0,0,866.7051,0,45.16,2.779,185,1.683,2.364,0,0,51.33,59.26,33.62,35.51
"2016-01-22 19:10:00",219200,0.121,179.5,-10.18,86.9,0.04326266,0,866.6397,0,45.15,2.783,185,1.655,2.322,0,0,51.33,59.26,33.62,35.51
"2016-01-22 19:20:00",219201,0.451,182.9,-10.51,88.4,0.09439125,0,866.6017,0,45.58,2.777,180,1.631,2.332,0,0,51.33,59.26,33.62,35.51
"2016-01-22 19:30:00",219202,0.372,185,-10.38,87.7,0,0,866.6755,0,45.52,2.779,175,1.629,2.326,0.0758426,0,51.33,59.26,33.62,35.51
"2016-01-22 19:40:00",219203,0.522,171.4,-10.41,88.5,0,0,866.8041,0,45.16,2.782,192,1.629,2.342,0.04550556,0,51.33,59.26,33.62,35.51
"2016-01-22 19:50:00",219204,0.242,136.4,-10.7,88.1,0,0,866.5828,0,45,2.785,176,1.63,2.355,0,0,51.27,59.26,33.61,35.51
"2016-01-22 20:00:00",219205,0.604,218.9,-10.35,87.6,0,0,866.1212,0,45.25,2.781,180,1.635,2.361,0.1668537,0,51.33,59.26,33.62,35.51
"2016-01-22 20:10:00",219206,0.614,201.8,-10.41,86.9,0,0,865.9695,0,45.15,2.783,175,1.636,2.361,0.09101113,0,51.33,59.26,33.62,35.51
"2016-01-22 20:20:00",219207,0.329,106.8,-10.84,88,0,0,866.0906,0,45.1,2.786,176,1.658,2.364,0,0,51.33,59.26,33.62,35.51
"2016-01-22 20:30:00",219208,0.241,105.3,-11.04,88.9,0.03539686,0,866.1776,0,45.14,2.786,171,1.676,2.368,0,0,51.33,59.26,33.62,35.51
"2016-01-22 20:40:00",219209,0.199,233.2,-11.13,87.8,0.01180005,0,866.1448,0,44.95,2.787,174,1.704,2.396,0,0,51.33,59.26,33.62,35.51
"2016-01-22 20:50:00",219210,0.259,261.7,-10.78,84.2,0,0,866.2635,0,45.01,2.785,176,1.733,2.425,0.06448196,0,51.33,59.26,33.62,35.51
"2016-01-22 21:00:00",219211,0.141,258.3,-10.65,83.2,0,0,866.2018,0,44.72,2.789,180,1.745,2.437,0.05310521,0,51.33,59.26,33.62,35.51
"2016-01-22 21:10:00",219212,0.253,351.8,-11.13,83.4,0,0,866.2327,0,45,2.788,185,1.753,2.445,0,0,51.33,59.26,33.62,35.51
"2016-01-22 21:20:00",219213,0.199,354.6,-11.11,83.3,0,0,866.1677,0,44.66,2.79,174,1.758,2.45,0,0,51.33,59.26,33.62,35.51
"2016-01-22 21:30:00",219214,0.022,39.69,-11.24,83.2,0,0,866.1556,0,44.87,2.789,184,1.76,2.453,0,0,51.33,59.26,33.62,35.51
"2016-01-22 21:40:00",219215,0.016,304.3,-11.03,82.1,0,0,866.1642,0,44.53,2.79,176,1.761,2.465,0.06069481,0,51.33,59.32,33.62,35.52
"2016-01-22 21:50:00",219216,0.185,302,-11.28,81.6,0,0,866.2928,0,45.58,2.782,193,1.761,2.499,0.02276055,0,51.33,59.26,33.62,35.51
"2016-01-22 22:00:00",219217,0.195,305.9,-10.59,78.61,0,0,866.3308,0,44.95,2.783,187,1.761,2.492,0.6638497,0,51.33,59.26,33.62,35.51
"2016-01-22 22:10:00",219218,0.749,305.6,-9.9,73.41,0,0,866.1917,0,45.18,2.779,192,1.761,2.471,0.6828168,0,51.33,59.26,33.62,35.51
"2016-01-22 22:20:00",219219,0.651,311.5,-9.96,76.06,0,0,866.3919,0,44.4,2.789,174,1.761,2.455,0.2920939,0,51.33,59.26,33.62,35.51
"2016-01-22 22:30:00",219220,0.097,57.48,-10.67,78.19,0,0,866.6492,0,44.76,2.789,191,1.761,2.454,0,0,51.33,59.26,33.62,35.51
"2016-01-22 22:40:00",219221,0.006,355,-10.96,79.23,0,0,866.548,0,44.44,2.795,185,1.761,2.471,0,0,51.33,59.26,33.62,35.51
"2016-01-22 22:50:00",219222,0.031,355,-11.65,82.7,0.09442353,0,866.4489,0,45.03,2.789,184,1.765,2.495,0,0,51.27,59.26,33.61,35.51
"2016-01-22 23:00:00",219223,0.164,273.2,-10.82,82.6,0,0,866.6154,0,44.45,2.794,193,1.768,2.509,0.4590047,0,51.33,59.26,33.62,35.51
"2016-01-22 23:10:00",219224,0.033,108.1,-11.64,83.7,0,0,866.4805,0,44.57,2.793,180,1.78,2.535,0,0,51.33,59.26,33.62,35.51
"2016-01-22 23:20:00",219225,0.174,318.1,-10.78,83,0,0,866.3329,0,44.7,2.786,184,1.795,2.508,0.8800751,0,51.27,59.26,33.61,35.51
"2016-01-22 23:30:00",219226,0.519,223.3,-10.39,79.12,0,0,866.2296,0,44.51,2.789,192,1.769,2.522,0.6069483,0,51.33,59.26,33.62,35.51
"2016-01-22 23:40:00",219227,0.429,168.6,-10.81,79.91,0,0,866.2148,0,44.21,2.796,193,1.764,2.516,0.106216,0,51.33,59.26,33.62,35.51
"2016-01-22 23:50:00",219228,0.41,190.8,-11.45,83,0,0,865.9935,0,44.64,2.79,189,1.764,2.516,0.01138028,0,51.27,59.26,33.61,35.51
